Regional Weather Roundup
Issued by NWS

Home | Current Version | Previous Version | Text Only | Print | Product List | Glossary On
Versions: 1 2 3 4 5 6 7 8 9 10 11 12 13 14 15 16 17 18 19 20 21 22 23 24 25 26 27 28 29 30 31 32 33 34 35 36 37 38 39 40 41 42 43 44 45 46 47 48 49 50
000
ASUS43 KMPX 021110
RWRMN
WEATHER ROUNDUP FOR MINNESOTA
NATIONAL WEATHER SERVICE TWIN CITIES/CHANHASSEN MN
600 AM CDT THU JUL 02 2015


NOTE: "FAIR" INDICATES FEW OR NO CLOUDS BELOW 12,000 FEET WITH NO
SIGNIFICANT WEATHER AND/OR OBSTRUCTIONS TO VISIBILITY. N/A MEANS
CURRENT SKY AND/OR WEATHER CONDITIONS ARE NOT AVAILABLE.

MNZ060>063-068>070-021200-
   Twin Cities Metro

CITY           SKY/WX    TMP DP  RH WIND       PRES   REMARKS
TWIN CITIES    CLEAR     57  54  89 CALM      30.04R
ST PAUL        CLEAR     56  54  93 CALM      30.05R
CRYSTAL        CLEAR     54  51  90 CALM      30.04R
BLAINE         CLEAR     55  54  94 CALM      30.05R
LAKEVILLE      CLEAR     48  48 100 CALM      30.05R
EDEN PRAIRIE   CLEAR     54  51  90 SW3       30.04R
SOUTH ST PAUL  CLEAR     56  53  92 CALM      30.04R
LAKE ELMO      FAIR      54  54 100 CALM      30.05R
$$
MNZ001>005-007-008-013>017-022>024-027-028-021200-
   Northwest Minnesota

CITY           SKY/WX    TMP DP  RH WIND       PRES   REMARKS
BEMIDJI        CLEAR     57  55  93 S5        30.02R
HALLOCK        CLEAR     57  55  94 S7        29.94S
ROSEAU         CLEAR     57  54  88 S7        29.97R
WARROAD        CLEAR     59  55  88 SW5       29.97S FOG
THIEF RVR FALL PTCLDY    57  54  88 S5        29.99S
CROOKSTON      CLEAR     59  55  88 S7        29.98S
FOSSTON        CLEAR     54  52  94 CALM      30.01S
DETROIT LAKES  CLEAR     59  54  82 CALM      30.02S
MOORHEAD       CLEAR     55  54  94 SE7       29.99S
PARK RAPIDS    PTCLDY    61  55  81 CALM      30.02S
$$
MNZ006-009>011-018-025>026-021200-
   North Central Minnesota

CITY           SKY/WX    TMP DP  RH WIND       PRES   REMARKS
BAUDETTE       CLEAR     60  55  83 W5        29.97R
FLAG ISLAND    PTCLDY    64  57  77 SW10      29.94S
INTL FALLS     CLEAR     54  53  97 SW3       29.97R
WASKISH        CLEAR     66  59  77 SW9       30.00R
BIG FORK         N/A     52  52 100 CALM      30.02R FOG
LONGVILLE      CLOUDY    59  57  94 CALM      30.03R FOG
GRAND RAPIDS   CLOUDY    64  55  72 W5        30.03R
CRANE LAKE     CLEAR     48  48 100 SE1       30.00R
ORR            CLEAR     55  54  94 CALM      29.98R
COOK           CLEAR     54  52  94 CALM      30.01R
WALKER         CLOUDY    58  55  88 SW3       30.02R
$$
MNZ012-019>021-037-021200-
   Northeast Minnesota

CITY           SKY/WX    TMP DP  RH WIND       PRES   REMARKS
DULUTH         MOCLDY    58  52  80 CALM      30.03R
ELY            CLEAR     50  48  93 CALM      30.01R
HIBBING        FOG       47  46  97 CALM      30.02R VSB 1/2
DULUTH HARBOR  CLOUDY    57  55  94 SW6       30.04R
TWO HARBORS    CLOUDY    55  50  82 W2        30.02R
SILVER BAY     CLEAR     46  45  93 CALM      30.01R
GRAND MARAIS     N/A     51  48  89 CALM      30.00R
G MARAIS ARPRT CLEAR     54  45  71 W3        30.03R
$$
MNZ029>031-032-039>041-046>048-054>057-064-021200-
   West Central Minnesota

CITY           SKY/WX    TMP DP  RH WIND       PRES   REMARKS
FERGUS FALLS   PTCLDY    57  54  88 SE5       30.01S
WHEATON        PTCLDY    52  50  93 SE7       30.02S
MORRIS         MOCLDY    54  52  94 SE7       30.01S
ALEXANDRIA     PTCLDY    57  53  86 S5        30.03F
ELBOW LAKE     FAIR      56  53  89 SE6       30.01S
WADENA           N/A     57  55  94 CALM      30.02S
GLENWOOD       MOCLDY    54  52  94 SE5       30.03F
APPLETON       MOCLDY    54  50  87 E3        30.01S
BENSON         MOCLDY    54  50  87 S3        30.03S
ORTONVILLE     PTCLDY    54  52  94 SE5       30.00S
MADISON          N/A     52  50  93 SE5       30.01F
WILLMAR        FAIR      54  52  94 CALM      30.05S
$$
MNZ033>034-036-042>043-049>051-058-059-021200-
   Central Minnesota

CITY           SKY/WX    TMP DP  RH WIND       PRES   REMARKS
ST CLOUD       CLEAR     50  49  96 CALM      30.04R
SAUK CENTRE    FAIR      52  51  98 CALM      30.04S
PAYNESVILLE    PTCLDY    47  47 100 CALM      30.04S
AITKIN         CLOUDY    57  54  88 CALM      30.03R
PINE RIVER       N/A     61  55  82 SW3       30.06S
BRAINERD       CLOUDY    59  56  89 S3        30.04R
STAPLES        CLOUDY    61  54  77 CALM      30.03S
LONG PRAIRIE   FAIR      52  52 100 CALM      30.03F
LITTLE FALLS   MOCLDY    54  52  94 CALM      30.03F
LITCHFIELD     FAIR      54  54 100 CALM      30.05R
BUFFALO        CLEAR     51  48  89 CALM      30.06R
MAPLE LAKE     CLEAR     52  51  97 CALM      30.05S
$$
MNZ037-044-045-052-053-021200-
   East Central Minnesota

CITY           SKY/WX    TMP DP  RH WIND       PRES   REMARKS
PRINCETON      CLEAR     54  52  94 CALM      30.05R
MORA           FOG       50  50 100 CALM      30.06R VSB 3/4
CAMBRIDGE      CLEAR     55  46  71 CALM      30.03R HAZE
RUSH CITY      PTCLDY    52  51  97 CALM      30.06R FOG
MOOSE LAKE       N/A     50  50 100 CALM      30.03R FOG
HINCKLEY       FAIR      50  50 100 CALM      30.06R
CLOQUET        MOCLDY    54  52  94 CALM      30.04R
MCGREGOR       CLOUDY    55  54  94 CALM      30.05R
$$
MNZ071>073-080-081-089-090-097-098-021200-
   Southwest Minnesota

CITY           SKY/WX    TMP DP  RH WIND       PRES   REMARKS
MONTEVIDEO     PTCLDY    54  54 100 S5        30.02F
GRANITE FALLS  PTCLDY    53  51  94 CALM      30.04R
CANBY          PTCLDY    51  50  95 SE3       30.02S FOG
MARSHALL       PTCLDY    52  45  76 CALM      30.01S
REDWOOD FALLS  CLEAR     51  50  96 SE3       30.04R
OLIVIA         PTCLDY    52  48  87 CALM      30.03S
PIPESTONE      CLOUDY    57  54  88 SE3       30.01S
WINDOM         PTCLDY    50  48  93 CALM      30.02F
WORTHINGTON    CLOUDY    55  52  88 E3        30.02S
JACKSON        CLOUDY    50  48  93 E5        30.03S
TRACY          PTCLDY    55  51  86 CALM      30.03R
SLAYTON        CLOUDY    55  54  96 CALM      30.03S
$$
MNZ065>067-074>077-082>085-091>093-021200-
   South Central Minnesota

CITY           SKY/WX    TMP DP  RH WIND       PRES   REMARKS
MANKATO        CLEAR     54  48  82 CALM      30.05R
NEW ULM        CLEAR     52  52 100 CALM      30.04R
ST JAMES       FOG       48  48 100 CALM      30.05R VSB 3/4
FAIRMONT       FAIR      48  43  81 CALM      30.03R
GLENCOE        CLEAR     51  50  97 CALM      30.05R
FARIBAULT      CLEAR     48  46  93 CALM      30.05S FOG
OWATONNA       CLEAR     48  46  93 CALM      30.05S
WASECA         PTCLDY    45  43  93 CALM      30.06R
ALBERT LEA     PTCLDY    46  46 100 CALM      30.04S
$$
MNZ078>079-086>088-094>096-021200-
   Southeast Minnesota

CITY           SKY/WX    TMP DP  RH WIND       PRES   REMARKS
ROCHESTER      CLEAR     52  50  93 CALM      30.06R
RED WING       FOG       52  52 100 CALM      30.04R VSB<1/4
STANTON        CLEAR     50  48  93 CALM      30.04R
DODGE CENTER   CLEAR     48  46  93 CALM      30.05S
WINONA         FOG       54  54 100 NW5       30.05R VSB 1/4
AUSTIN         CLEAR     46  46 100 CALM      30.05R
PRESTON        CLEAR     50  48  94 CALM      30.05S
$$
ABBREVIATIONS USED IN REMARKS
   TC - TEMPERATURES IN CELSIUS
  WCI - WIND CHILL INDEX
   HX - HEAT INDEX
  VSB - VISIBILITY
$$


USA.gov is the U.S. government's official web portal to all federal, state and local government web resources and services.